Other Surface Observations
Issued by NWS

Current Version | Previous Version | Text Only | Print | Product List | Glossary On
Versions: 1 2 3 4 5 6 7 8 9 10 11 12 13 14 15 16 17 18 19 20 21 22 23 24 25 26 27 28 29 30 31 32 33 34 35 36 37 38 39 40 41 42 43 44 45 46 47 48 49 50
101
SXUS52 KTAE 251719
OSOTAE
OSOTAE
North Florida/South Alabama/Southwest Georgia Weather Roundup
National Weather Service Tallahassee Florida
100 PM EDT MON SEP 25 2017

Note: "fair" indicates few or no clouds below 12,000 feet with no
significant weather and/or obstructions to visibility.

!FLZ017-115-028-034-025-251800
...North Florida...

CITY           SKY/WX    TMP DP  RH WIND       PRES   REMARKS
TALLAHASSEE    MOSUNNY   86  68  54 VRB6      29.94F
APALACHICOLA   MOSUNNY   84  75  74 E12       29.93F HX  92
PERRY          SUNNY     87  69  55 E3        29.95S HX  91
CROSS CITY     PTSUNNY   87  71  57 N7        29.97F HX  92
JACKSONVILLE   MOSUNNY   87  65  47 NE5       29.91F
$$

!FLZ112-006-005-002-011-251800
...Florida Panhandle...

CITY           SKY/WX    TMP DP  RH WIND       PRES   REMARKS
MARIANNA       MOSUNNY   85  68  56 E6        29.94F
BONIFAY        NOT AVBL
PANAMA CITY NW FAIR      82  70  66 NE7       29.93R
TYNDALL AFB    SUNNY     84  73  70 NE3       29.93S HX  90
TYND DRONE APT PTSUNNY   84  73  70 S6        29.93S HX  91
DE FUNIAK SPR  FAIR      78  69  73 CALM      29.97S
EGLIN AFB      MOSUNNY   80  70  71 E10       29.93F
DESTIN         CLOUDY    81  70  69 E9        29.93F
HURLBURT       MOSUNNY   80  67  63 E13       29.92F
CRESTVIEW      CLOUDY    79  71  76 E8        29.97F
PENSACOLA      PTSUNNY   83  71  67 SE9       29.94R
$$

!ALZ063-066-251800
...South Alabama...

CITY           SKY/WX    TMP DP  RH WIND       PRES   REMARKS
DOTHAN         PTSUNNY   86  68  54 E12       30.00F
OZARK CAIRNS   CLOUDY    85  69  57 E10       29.96F
FT RUCKER HELI CLOUDY    83  70  64 SE3       29.96F
RUCKER HELI 3  PTSUNNY   82  69  64 CALM      29.96F
RUCKER HELI 2  FAIR      84  68  58 E10       29.95F
FLORALA APT    NOT AVBL
ANDALUSIA      CLOUDY    86  68  54 E7        29.95F
TROY           MOSUNNY   86  69  56 VRB7      29.98F HX  90
EUFALA         NOT AVBL
MOBILE         PTSUNNY   81  71  71 E12       29.95F
$$

!GAZ120>161-251800
...Southwest and South Central Georgia...

CITY           SKY/WX    TMP DP  RH WIND       PRES   REMARKS
THOMASVILLE    FAIR      86  66  51 E5        29.96F
BAINBRIDGE     SUNNY     88  72  58 NE6       29.96F HX  94
MOODY AFB      MOSUNNY   85  67  55 E3        29.94F
VALDOSTA       SUNNY     85  67  54 SE3       29.94F
MOULTRIE       SUNNY     86  66  51 CALM      29.96F
BLAKELY        MOSUNNY   88  68  51 E6        29.97F HX  91
ALBANY         PTSUNNY   88  67  49 NE8       29.98F HX  91
TIFTON         FAIR      84  65  53 CALM      29.96F
FITZGERALD     FAIR      85  68  55 N3        29.99S
CORDELE        FAIR      90  62  39 E6        29.99S HX  91
AMERICUS       PTSUNNY   86  61  42 SE7       30.00F
HOMERVILLE     FAIR      86  66  51 NE6       29.95S
$$

!GMZ750-755-770-775-251800
...Coastal and Buoy Obs...

STATION/POSITION TIME  TEMP    WIND        PRES    VSBY  WAVE
                       AIR SEA DIR/SP/G                  HT/PER
                 (UTC) (F)     (DEG/KT/KT) (MB)    (MI)  (FT/S)
KEATON BEACH     1700   83     280/  5/  5 1013.3F
CEDAR KEY        1700   81     160/  4/  5 1013.6F
C TOWER          1700   80     120/ 10/ 11 1014.2S
APALACHICOLA BUO 1650   81 82  120/ 10/ 12 1013.0F         2/ 5
PANAMA CITY BUOY 1650   76 82   80/ 12/ 17 1012.9F         3/ 5
MOBILE BUOY      1700   81 82   90/  8/ 10 1012.7
ORANGE BCH AL BU 1650   79 82   80/ 14/ 17 1012.8F         3/ 4
$$




USA.gov is the U.S. government's official web portal to all federal, state and local government web resources and services.